This is the latest recevied weather packets stored in our database for station/object N7SWJ. If no packets are shown the sender has not sent any weather packets the latest 10 day(s).
| Time | Temp. | Humidity | Pressure | Rain* | Wind** | Luminosity | Snow |
|---|---|---|---|---|---|---|---|
| 1778022857 | 1.67° C | 95% | 1015.7 hPa | 0 mm | - | 28 W/m² | - |
| 1778022555 | 1.67° C | 95% | 1015.9 hPa | 1.78 mm | - | 42 W/m² | - |
| 1778022253 | 1.67° C | 95% | 1015.9 hPa | 1.78 mm | - | 45 W/m² | - |
| 1778021948 | 1.67° C | 95% | 1015.9 hPa | 1.27 mm | - | 43 W/m² | - |
| 1778021646 | 1.67° C | 95% | 1015.5 hPa | 1.27 mm | - | 44 W/m² | - |
| 1778021341 | 2.22° C | 95% | 1015.5 hPa | 0 mm | - | 53 W/m² | - |
| 1778021039 | 2.22° C | 95% | 1015.8 hPa | 0 mm | - | 61 W/m² | - |
| 1778020735 | 1.67° C | 95% | 1015.8 hPa | 1.78 mm | - | 56 W/m² | - |
| 1778020432 | 1.67° C | 95% | 1015.8 hPa | 1.78 mm | - | 79 W/m² | - |
| 1778020128 | 1.67° C | 94% | 1015.5 hPa | 1.27 mm | - | 73 W/m² | - |
| 1778019825 | 1.67° C | 94% | 1015.3 hPa | 1.27 mm | - | 76 W/m² | - |
| 1778019521 | 2.22° C | 94% | 1015.3 hPa | 3.05 mm | - | 104 W/m² | - |
| 1778019218 | 1.67° C | 94% | 1015.5 hPa | 3.05 mm | - | 78 W/m² | - |
| 1778018915 | 2.22° C | 94% | 1015.7 hPa | 1.27 mm | - | 113 W/m² | - |
| 1778018612 | 2.22° C | 94% | 1015.4 hPa | 0 mm | - | 105 W/m² | - |
| 1778018310 | 2.22° C | 94% | 1015.2 hPa | 0 mm | - | 99 W/m² | - |
| 1778018008 | 2.22° C | 94% | 1015.3 hPa | 1.78 mm | - | 103 W/m² | - |
| 1778017706 | 2.22° C | 94% | 1015.3 hPa | 1.78 mm | - | 89 W/m² | - |
| 1778017403 | 2.22° C | 94% | 1015.1 hPa | 1.78 mm | - | 95 W/m² | - |
| 1778017100 | 2.78° C | 94% | 1015.3 hPa | 0 mm | - | 84 W/m² | - |
| 1778016798 | 2.78° C | 94% | 1015 hPa | 0 mm | - | 114 W/m² | - |
| 1778016493 | 2.78° C | 94% | 1015 hPa | 0 mm | - | 96 W/m² | - |
| 1778016191 | 2.78° C | 94% | 1015.4 hPa | 0 mm | - | 165 W/m² | - |
| 1778015887 | 2.78° C | 94% | 1015.3 hPa | 0 mm | - | 122 W/m² | - |
| 1778015585 | 2.22° C | 94% | 1015.4 hPa | 1.78 mm | - | 103 W/m² | - |
* Rain latest hour (hover to see other rain measurements)
** Current wind speed in m/s (hover to see current wind gust speed)